Location: Bad Dürkheim
(49.4618°N, 8.1724°E)
Time: 20:04:47
(UTC+00:00)

Cosmos 2233 Rocket - Pass Details

Date: 14 June 2025
Orbit: 953 x 989 km, 82.9° (Epoch: 16 July)

Event Time Altitude Azimuth Distance (km) Brightness Sun altitude
Rises 21:35:52 0° 350° (N) 3,706 8.7 -13.1°
Reaches altitude 10° 21:38:23 10° 350° (N) 2,756 7.7 -13.3°
Maximum altitude 21:44:44 87° 264° (W) 998 4.1 -13.7°
Enters shadow 21:49:38 18° 175° (S) 2,224 5.3 -14.0°
